Regional Weather Roundup
Issued by NWS

Home | Current Version | Previous Version | Text Only | Print | Product List | Glossary On
Versions: 1 2 3 4 5 6 7 8 9 10 11 12 13 14 15 16 17 18 19 20 21 22 23 24 25 26 27 28 29 30 31 32 33 34 35 36 37 38 39 40 41 42 43 44 45 46 47 48
000
ASUS45 KSLC 032210
RWRUT

UTAH REGIONAL WEATHER ROUNDUP
NATIONAL WEATHER SERVICE SALT LAKE CITY UT
400 PM MDT THU SEP 03 2015

UTZ001>011-023>025-032300-

NORTHERN UTAH

CITY           SKY/WX    TMP DP  RH WIND       PRES   REMARKS
BRIGHAM CITY   SUNNY     87  30  12 SW10G21   29.82F
HILL AFB       MOSUNNY   86  37  17 S22G30    29.85F
LOGAN          SUNNY     86  35  16 SW20G25   29.83F
OGDEN          MOSUNNY   87  35  15 SE18      29.82F
PROVO AIRPORT  MOSUNNY   82  37  20 SW12G17   29.87F
SALT LAKE CITY MOSUNNY   88  34  14 S22       29.82F
VERNAL         PTSUNNY   83  39  21 SW13G21   29.94F
WENDOVER       PTSUNNY   90  36  14 S20G26    29.75F
HEBER CITY     PTSUNNY   84  30  14 SW22      29.93F
WEST JORDAN    SUNNY     84  37  18 SE15G26   29.86F

$$

UTZ012>022-026-027-032300-

SOUTHERN/CENTRAL UTAH

CITY           SKY/WX    TMP DP  RH WIND       PRES   REMARKS
BLANDING       MOSUNNY   82  39  21 SW13G21   30.12F
BRYCE CANYON   SUNNY     74  36  25 SW14G28   30.16F
CEDAR CITY     SUNNY     82  28  14 SW21G33   29.98F
DELTA          MOSUNNY   85  28  12 SW24G32   29.89F
HANKSVILLE     MOSUNNY   88  36  15 SW17G25   29.93F
MILFORD        MOSUNNY   87  31  13 SW32G41   29.91F
MOAB/CYNLANDS  SUNNY     89  39  17 S10       29.90F
PRICE          SUNNY     83  31  15 S16G24    29.99F
ST GEORGE      MOCLDY    97  39  13 S23       29.81F HX  92
KANAB          SUNNY     84  37  18 S13G22    30.02F

$$

REGIONAL REPORTS     COLORADO/ARIZONA

CITY           SKY/WX    TMP DP  RH WIND       PRES   REMARKS
CRAIG, CO      CLOUDY    75  44  33 S15G24    30.08F
GRAND JUNCTION MOSUNNY   78  49  35 S17G25    29.98F
RIFLE          MOSUNNY   70  56  61 N6        30.09F
MONTROSE       MOSUNNY   74  51  44 S7        30.10F
CORTEZ         PTSUNNY   80  43  26 S8        30.07F
PAGE, AZ       SUNNY     90  34  13 SW10      29.92F
GRAND CANYON   SUNNY     78  37  22 SW13      30.13F
KINGMAN        SUNNY     93  31  11 SW24G31   29.89F
FLAGSTAFF      MOSUNNY   73  45  36 SW18G24   30.19F

$$

REGIONAL REPORTS    NEVADA/IDAHO/WYOMING

CITY           SKY/WX    TMP DP  RH WIND       PRES   REMARKS
LAS VEGAS, NV  MOSUNNY   98  32  10 W12G18    29.70F HX  92
ELY            SUNNY     81  23  11 S23G38    29.95F
ELKO           MOSUNNY   82  27  13 W15G28    29.81F
POCATELLO, ID  MOSUNNY   80  37  21 W9G16     29.84F
BURLEY         MOSUNNY   72  44  36 W10       29.84F
EVANSTON, WY   MOSUNNY   78  28  16 SW22G31   30.03F
ROCK SPRINGS   CLOUDY    76  34  21 S16G24    30.02F
KEMMERER       MOSUNNY   77  28  16 W22       30.03F

$$


USA.gov is the U.S. government's official web portal to all federal, state and local government web resources and services.